K42C Weather Reports


Display with metric or nautical units.
time (UTC)temp
F
wind
direction
speed
MPH
gust
MPH
rain 1hr
in
rain 24hr
in
rain mn
in
humidity
%
barometer
mb
20260905125829 67 59 7.0 4.0 0.00 0.44 0.00 100 978.3
20260905124511 67 69 6.0 7.0 0.00 0.44 0.00 100 978.3
20260905124113 67 100 7.0 7.0 0.00 0.44 0.00 100 978.2
20260905123831 67 100 7.0 7.0 0.00 0.44 0.00 100 978.2
20260905123154 67 87 5.0 6.0 0.00 0.44 0.00 100 978.1
20260905122513 67 113 7.0 4.0 0.00 0.44 0.00 100 978.0
20260905121836 67 77 6.0 7.0 0.00 0.44 0.00 100 977.9
20260905121156 67 70 6.0 4.0 0.00 0.44 0.00 100 977.9
20260905120519 67 113 7.0 5.0 0.00 0.44 0.00 100 977.8
20260905115838 67 89 7.0 5.0 0.00 0.44 0.00 100 977.7
20260905115244 67 69 5.0 6.0 0.00 0.44 0.00 100 977.7
20260905115201 67 69 5.0 6.0 0.00 0.44 0.00 100 977.7
20260905113844 67 55 7.0 6.0 0.00 0.44 0.00 100 977.7
20260905112731 67 66 4.0 7.0 0.00 0.44 0.00 100 977.5
20260905112527 67 66 4.0 7.0 0.00 0.44 0.00 100 977.5
20260905111846 67 66 7.0 6.0 0.00 0.44 0.00 99 977.4
20260905110529 67 72 6.0 5.0 0.00 0.44 0.00 100 977.4
20260905105852 67 83 5.0 7.0 0.00 0.44 0.00 100 977.4
20260905105211 67 89 7.0 5.0 0.00 0.44 0.00 100 977.4
20260905104534 67 359 5.0 9.0 0.00 0.44 0.00 100 977.5
20260905103854 67 59 6.0 6.0 0.00 0.44 0.00 100 977.5
20260905102637 67 28 7.0 6.0 0.00 0.44 0.00 100 977.4
20260905102536 67 28 7.0 6.0 0.00 0.44 0.00 100 977.4
20260905101859 67 101 2.0 5.0 0.00 0.44 0.00 100 977.0
20260905101219 67 121 4.0 5.0 0.00 0.44 0.00 100 977.2
20260905100542 67 94 7.0 6.0 0.00 0.44 0.00 100 977.3
20260905094544 68 89 6.0 9.0 0.00 0.44 0.00 100 977.2
20260905094129 68 86 9.0 8.0 0.00 0.44 0.00 100 977.2
20260905093907 68 86 9.0 8.0 0.00 0.44 0.00 100 977.2
20260905093227 68 62 7.0 7.0 0.00 0.44 0.00 100 977.1
20260905092550 68 34 7.0 7.0 0.00 0.44 0.00 100 977.1
20260905091909 68 101 0.0 9.0 0.00 0.44 0.00 100 977.1
20260905091232 68 46 7.0 4.0 0.00 0.44 0.00 100 976.8
20260905090640 68 52 5.0 6.0 0.00 0.44 0.00 100 976.8
20260905090552 68 52 5.0 6.0 0.00 0.44 0.00 100 976.8
20260905085915 68 104 0.0 4.0 0.00 0.44 0.00 100 977.0
20260905085234 68 68 5.0 6.0 0.00 0.44 0.00 100 976.8
20260905084557 68 21 0.0 0.0 0.00 0.44 0.00 100 976.8
20260905083240 69 62 3.0 3.0 0.00 0.44 0.00 100 976.9
20260905082640 69 58 5.0 3.0 0.00 0.44 0.00 100 976.8
20260905082559 69 58 5.0 3.0 0.00 0.44 0.00 100 976.8
20260905081922 69 66 5.0 3.0 0.00 0.44 0.00 100 976.8
20260905081242 69 72 3.0 5.0 0.00 0.44 0.00 100 976.6
20260905080605 69 100 0.0 0.0 0.00 0.44 0.00 100 976.8
20260905075924 69 55 0.0 0.0 0.00 0.44 0.00 100 976.8
20260905075400 69 55 0.0 0.0 0.00 0.44 0.00 100 976.7
20260905075247 69 55 0.0 0.0 0.00 0.44 0.00 100 976.7
20260905074607 69 82 3.0 3.0 0.00 0.44 0.00 100 976.7
20260905073930 69 70 0.0 0.0 0.00 0.44 0.00 100 976.8
20260905073334 69 70 0.0 0.0 0.00 0.44 0.00 100 976.6
20260905073249 69 70 0.0 0.0 0.00 0.44 0.00 100 976.6
20260905072612 69 121 4.0 6.0 0.00 0.44 0.00 100 976.7
20260905072005 69 82 6.0 5.0 0.00 0.44 0.00 100 976.8
20260905071932 69 82 6.0 5.0 0.00 0.44 0.00 100 976.8
20260905071412 69 58 4.0 5.0 0.00 0.44 0.00 100 976.8
20260905071255 69 58 4.0 5.0 0.00 0.44 0.00 100 976.8
20260905070756 69 59 5.0 6.0 0.00 0.44 0.00 100 976.8
20260905070709 69 59 5.0 6.0 0.00 0.44 0.00 100 976.8
20260905070614 69 59 5.0 6.0 0.00 0.44 0.00 100 976.8
20260905070029 69 68 5.0 5.0 0.00 0.44 0.00 100 976.8
20260905065937 69 68 5.0 5.0 0.00 0.44 0.00 100 976.8
20260905065442 69 83 6.0 6.0 0.00 0.44 0.00 100 976.8
20260905065257 69 83 6.0 6.0 0.00 0.44 0.00 100 976.8
20260905064706 69 55 7.0 5.0 0.00 0.44 0.00 100 976.8
20260905064620 69 55 7.0 5.0 0.00 0.44 0.00 100 976.8
20260905063440 69 28 6.0 5.0 0.00 0.44 0.00 100 976.8
20260905063302 69 28 6.0 5.0 0.00 0.44 0.00 100 976.8
20260905062622 70 60 6.0 7.0 0.00 0.44 0.00 100 976.8
20260905061945 70 42 5.0 6.0 0.00 0.44 0.00 100 977.0
20260905061401 70 62 7.0 5.0 0.00 0.44 0.00 100 976.9
20260905061304 70 62 7.0 5.0 0.00 0.44 0.00 100 976.9
20260905060746 70 82 6.0 7.0 0.00 0.44 0.00 100 976.9
20260905060627 70 82 6.0 7.0 0.00 0.44 0.00 100 976.9
20260905060049 70 65 8.0 6.0 0.00 0.44 0.00 100 976.9
20260905055947 70 65 8.0 6.0 0.00 0.44 0.00 100 976.9
20260905055414 70 15 2.0 4.0 0.00 0.44 0.00 100 976.9
20260905055310 70 15 2.0 4.0 0.00 0.44 0.00 100 976.9
20260905054823 70 105 5.0 5.0 0.00 0.44 0.00 100 976.8
20260905054629 70 105 5.0 5.0 0.00 0.44 0.00 100 976.8
20260905053952 70 46 7.0 9.0 0.00 0.44 0.00 100 976.6
20260905053621 71 113 7.0 9.0 0.00 0.44 0.00 100 976.7
20260905053312 71 113 7.0 9.0 0.00 0.44 0.00 100 976.7
20260905052752 71 84 6.0 6.0 0.00 0.44 0.00 100 976.7
20260905052635 71 84 6.0 6.0 0.00 0.44 0.00 100 976.7
20260905051954 71 108 5.0 5.0 0.00 0.44 0.00 100 976.7
20260905051317 71 96 6.0 5.0 0.00 0.44 0.00 100 976.8
20260905050637 71 104 5.0 3.0 0.00 0.44 0.00 100 976.8
20260905045412 72 127 6.0 5.0 0.00 0.44 0.00 100 976.6
20260905045319 72 127 6.0 5.0 0.00 0.44 0.00 100 976.6
20260905044913 72 76 7.0 7.0 0.00 0.44 0.00 100 976.5
20260905044642 72 76 7.0 7.0 0.00 0.44 0.00 100 976.5
20260905044122 72 104 0.0 3.0 0.00 0.44 0.00 100 976.6
20260905044002 72 104 0.0 3.0 0.00 0.44 0.00 100 976.6
20260905043442 72 91 6.0 6.0 0.00 0.44 0.00 100 976.4
20260905043325 72 91 6.0 6.0 0.00 0.44 0.00 100 976.4
20260905042644 72 84 5.0 5.0 0.00 0.44 0.00 100 976.5
20260905042007 73 110 3.0 6.0 0.00 0.44 0.00 100 976.7
20260905041327 73 59 4.0 3.0 0.00 0.44 0.00 100 976.6
20260905040745 73 87 6.0 6.0 0.00 0.44 0.00 100 976.7
20260905040650 73 87 6.0 6.0 0.00 0.44 0.00 100 976.7
20260905040009 72 94 0.0 0.0 0.00 0.44 0.00 100 976.9
20260905035442 72 101 2.0 0.0 0.00 0.01 0.44 100 976.8
20260905035332 72 101 2.0 0.0 0.00 0.01 0.44 100 976.8
20260905034815 72 63 1.0 5.0 0.00 0.01 0.44 100 976.8
20260905034652 72 63 1.0 5.0 0.00 0.01 0.44 100 976.8
20260905034141 72 10 0.0 0.0 0.00 0.01 0.44 100 977.0
20260905034015 72 10 0.0 0.0 0.00 0.01 0.44 100 977.0
20260905033425 72 10 0.0 0.0 0.00 0.01 0.44 100 977.0
20260905033334 72 10 0.0 0.0 0.00 0.01 0.44 100 977.0
20260905032811 72 34 5.0 5.0 0.00 0.01 0.44 100 977.1
20260905032657 72 34 5.0 5.0 0.00 0.01 0.44 100 977.1
20260905031440 73 10 0.0 4.0 0.00 0.01 0.44 100 977.0
20260905031339 73 10 0.0 4.0 0.00 0.01 0.44 100 977.0
20260905030659 73 10 0.0 0.0 0.00 0.01 0.44 100 977.1
20260905030022 73 10 0.0 0.0 0.00 0.01 0.44 100 977.1
20260905025341 73 10 0.0 0.0 0.00 0.01 0.44 100 977.1
20260905024704 73 10 0.0 0.0 0.00 0.01 0.44 100 977.0
20260905024246 73 10 0.0 0.0 0.00 0.01 0.44 100 976.9
20260905024024 73 10 0.0 0.0 0.00 0.01 0.44 100 976.9
20260905023347 74 10 0.0 0.0 0.00 0.01 0.44 100 976.9
20260905022029 74 10 0.0 0.0 0.00 0.01 0.44 100 977.0
20260905021348 74 10 0.0 0.0 0.00 0.01 0.44 100 976.9
20260905020711 74 10 0.0 0.0 0.00 0.01 0.44 100 976.7
20260905015513 74 10 0.0 0.0 0.00 0.01 0.44 100 976.8
20260905015354 74 10 0.0 0.0 0.00 0.01 0.44 100 976.8
20260905014713 74 10 0.0 0.0 0.00 0.01 0.44 100 976.7
20260905014036 74 10 0.0 0.0 0.00 0.01 0.44 100 976.7
20260905013355 74 10 0.0 0.0 0.00 0.01 0.44 99 976.7
20260905012718 75 10 0.0 0.0 0.00 0.01 0.44 99 976.7
20260905012136 75 10 0.0 0.0 0.00 0.01 0.44 98 976.6
20260905012038 75 10 0.0 0.0 0.00 0.01 0.44 98 976.6
20260905011441 75 10 0.0 0.0 0.00 0.01 0.44 98 976.8
20260905011401 75 10 0.0 0.0 0.00 0.01 0.44 98 976.8
20260905010043 75 10 0.0 0.0 0.00 0.01 0.44 97 976.7
20260905005402 75 10 0.0 0.0 0.00 0.01 0.44 97 976.5
20260905004725 76 10 0.0 0.0 0.00 0.01 0.44 96 976.4
20260905003407 76 10 0.0 0.0 0.00 0.01 0.44 96 976.3
20260905002727 76 10 0.0 0.0 0.00 0.01 0.44 96 976.2
20260905002050 76 10 0.0 0.0 0.00 0.01 0.44 96 976.2
20260905001409 76 10 0.0 0.0 0.00 0.01 0.44 95 976.2
20260905000732 76 10 0.0 0.0 0.00 0.01 0.44 95 976.2
20260904235459 77 10 0.0 0.0 0.00 0.01 0.44 94 976.0
20260904235414 77 10 0.0 0.0 0.00 0.01 0.44 94 976.0
20260904234734 77 10 0.0 0.0 0.00 0.01 0.44 93 975.8
20260904234057 77 10 0.0 0.0 0.00 0.01 0.44 92 975.5
20260904233416 77 10 0.0 0.0 0.00 0.01 0.44 92 975.4
20260904232739 77 10 0.0 0.0 0.00 0.01 0.44 90 975.1
20260904231421 78 10 1.0 0.0 0.00 0.01 0.44 90 975.3
20260904230740 78 10 0.0 0.0 0.00 0.01 0.44 90 975.2
20260904230103 77 10 0.0 0.0 0.00 0.01 0.44 90 975.1
20260904225423 77 10 0.0 0.0 0.00 0.01 0.44 90 975.1
20260904224915 77 10 0.0 0.0 0.00 0.01 0.44 90 975.0
20260904224746 77 10 0.0 0.0 0.00 0.01 0.44 90 975.0
20260904224105 77 10 0.0 0.0 0.00 0.01 0.44 89 974.9
20260904223534 77 10 4.0 0.0 0.00 0.01 0.44 90 974.9
20260904223428 77 10 4.0 0.0 0.00 0.01 0.44 90 974.9
20260904222748 78 46 5.0 5.0 0.00 0.01 0.44 90 974.6
20260904222110 78 18 5.0 0.0 0.00 0.01 0.44 89 974.7
20260904221430 78 332 3.0 3.0 0.00 0.01 0.44 89 974.6
20260904220753 78 312 0.0 0.0 0.00 0.01 0.44 87 974.7
20260904220112 78 330 2.0 5.0 0.00 0.01 0.44 87 974.9
20260904215435 78 354 6.0 4.0 0.00 0.01 0.44 87 975.0
20260904214755 78 321 0.0 0.0 0.00 0.01 0.44 90 975.0
20260904214118 77 321 4.0 0.0 0.00 0.01 0.44 91 975.1
20260904213437 77 0 3.0 0.0 0.00 0.01 0.44 90 975.1
20260904212800 77 339 0.0 0.0 0.00 0.01 0.44 91 975.2
20260904212120 77 293 0.0 0.0 0.00 0.01 0.44 91 975.1
20260904211443 77 293 0.0 0.0 0.00 0.01 0.44 91 975.2
20260904210802 77 293 0.0 0.0 0.00 0.01 0.44 91 975.3
20260904210125 77 293 0.0 0.0 0.00 0.01 0.44 90 975.4
20260904205445 77 239 0.0 0.0 0.00 0.01 0.44 90 975.4
20260904204808 77 239 0.0 0.0 0.00 0.01 0.44 91 975.4
20260904204127 77 222 1.0 5.0 0.00 0.01 0.44 91 975.6
20260904203450 77 307 0.0 0.0 0.00 0.01 0.44 92 975.6
20260904202810 77 314 4.0 3.0 0.00 0.01 0.44 91 975.7
20260904202133 77 312 0.0 0.0 0.00 0.01 0.44 92 975.8
20260904201452 77 312 0.0 0.0 0.00 0.01 0.44 92 975.8
20260904200815 76 228 0.0 0.0 0.00 0.01 0.44 94 975.8
20260904200135 76 228 0.0 0.0 0.00 0.01 0.44 93 976.0
20260904195458 76 221 0.0 0.0 0.00 0.01 0.44 94 976.2
20260904194817 76 229 5.0 4.0 0.00 0.01 0.44 94 976.3
20260904194142 76 197 5.0 6.0 0.00 0.01 0.44 95 976.2
20260904193500 76 219 5.0 7.0 0.00 0.01 0.44 93 976.2
20260904192142 76 203 2.0 0.0 0.00 0.01 0.44 94 976.1
20260904191507 76 359 0.0 1.0 0.00 0.01 0.44 93 975.9
20260904190825 76 131 0.0 0.0 0.00 0.01 0.44 93 975.9
20260904190148 77 131 0.0 0.0 0.00 0.01 0.44 92 976.0
20260904185543 76 131 0.0 0.0 0.00 0.01 0.44 92 975.8
20260904185509 76 131 0.0 0.0 0.00 0.01 0.44 92 975.8
20260904184831 76 131 0.0 0.0 0.00 0.01 0.44 92 975.7
20260904184246 77 131 0.0 0.0 0.00 0.01 0.44 92 975.6
20260904184150 77 131 0.0 0.0 0.00 0.01 0.44 92 975.6
20260904183545 77 131 0.0 0.0 0.00 0.01 0.44 93 975.7
20260904183513 77 131 0.0 0.0 0.00 0.01 0.44 93 975.7
20260904182833 76 131 0.0 0.0 0.00 0.01 0.44 94 975.8
20260904182246 76 131 0.0 0.0 0.00 0.01 0.44 95 975.8
20260904182156 76 131 0.0 0.0 0.00 0.01 0.44 95 975.8
20260904181549 75 150 0.0 0.0 0.00 0.01 0.44 94 975.9
20260904181516 75 150 0.0 0.0 0.00 0.01 0.44 94 975.9
20260904180839 75 150 0.0 0.0 0.00 0.01 0.44 95 976.2
20260904180158 75 150 0.0 0.0 0.00 0.01 0.44 97 976.3
20260904175637 74 148 3.0 0.0 0.00 0.01 0.44 98 976.5
20260904175521 74 148 3.0 0.0 0.00 0.01 0.44 98 976.5
20260904174942 74 129 0.0 0.0 0.00 0.01 0.44 100 976.4
20260904174841 74 129 0.0 0.0 0.00 0.01 0.44 100 976.4
20260904174246 73 180 4.0 3.0 0.00 0.01 0.44 100 976.6
20260904174204 73 180 4.0 3.0 0.00 0.01 0.44 100 976.6
20260904173616 73 184 0.0 5.0 0.00 0.01 0.44 100 976.7
20260904173524 73 184 0.0 5.0 0.00 0.01 0.44 100 976.7
20260904172847 73 149 0.0 0.0 0.00 0.01 0.44 100 976.6
20260904172250 73 179 2.0 4.0 0.00 0.01 0.44 100 976.6
20260904172206 73 179 2.0 4.0 0.00 0.01 0.44 100 976.6
20260904171640 72 176 1.0 3.0 0.00 0.01 0.44 100 976.6
20260904171529 72 176 1.0 3.0 0.00 0.01 0.44 100 976.6
20260904170921 72 127 0.0 0.0 0.00 0.01 0.44 100 976.9
20260904170849 72 127 0.0 0.0 0.00 0.01 0.44 100 976.9
20260904170306 71 127 0.0 0.0 0.00 0.01 0.44 100 976.9
20260904170212 71 127 0.0 0.0 0.00 0.01 0.44 100 976.9
20260904165612 71 127 0.0 0.0 0.01 0.01 0.44 100 976.9
20260904165532 71 127 0.0 0.0 0.01 0.01 0.44 100 976.9
20260904164855 71 127 0.0 0.0 0.01 0.01 0.44 100 977.0
20260904164246 71 127 1.0 0.0 0.01 0.01 0.44 100 977.3
20260904164214 71 127 1.0 0.0 0.01 0.01 0.44 100 977.3
20260904163537 71 15 0.0 0.0 0.01 0.01 0.44 100 977.2
20260904162857 70 15 0.0 0.0 0.01 0.01 0.44 100 977.5
20260904162220 70 15 0.0 0.0 0.01 0.01 0.44 100 977.2
20260904161540 70 15 0.0 0.0 0.01 0.01 0.44 100 977.1
20260904160222 70 15 0.0 0.0 0.01 0.01 0.44 100 977.5
20260904155642 70 15 0.0 0.0 0.04 0.01 0.44 100 977.4
20260904155545 70 15 0.0 0.0 0.04 0.01 0.44 100 977.4
20260904154943 70 15 0.0 0.0 0.04 0.01 0.44 100 977.3
20260904154905 70 15 0.0 0.0 0.04 0.01 0.44 100 977.3
20260904154301 69 15 0.0 0.0 0.04 0.01 0.44 100 977.4
20260904154228 69 15 0.0 0.0 0.04 0.01 0.44 100 977.4
20260904152911 69 15 0.0 0.0 0.04 0.01 0.44 100 977.0
20260904152230 69 15 0.0 0.0 0.04 0.01 0.44 100 977.4
20260904151553 69 15 0.0 0.0 0.04 0.01 0.43 100 977.7
20260904150913 69 15 0.0 0.0 0.04 0.01 0.43 100 977.2
20260904150236 69 15 0.0 0.0 0.04 0.01 0.43 100 976.6
20260904145556 69 15 0.0 0.0 0.08 0.01 0.43 100 976.6
20260904144919 69 15 0.0 0.0 0.08 0.01 0.43 100 976.7
20260904144238 69 15 0.0 0.0 0.08 0.01 0.42 100 976.9
20260904143635 69 15 0.0 0.0 0.08 0.01 0.42 100 976.9
20260904143601 69 15 0.0 0.0 0.08 0.01 0.42 100 976.9
20260904142921 69 15 0.0 0.0 0.08 0.01 0.41 100 977.1
20260904142244 69 15 0.0 0.0 0.08 0.01 0.41 100 976.9
20260904140927 69 15 0.0 0.0 0.08 0.01 0.40 100 977.3
20260904135609 69 354 1.0 8.0 0.09 0.01 0.39 100 977.7
20260904134929 69 11 1.0 6.0 0.09 0.01 0.38 100 977.9
20260904134359 69 232 0.0 0.0 0.09 0.01 0.37 100 977.3
20260904134252 69 232 0.0 0.0 0.09 0.01 0.37 100 977.3
20260904132934 69 232 0.0 0.0 0.09 0.01 0.36 100 975.9
20260904132253 69 195 1.0 0.0 0.09 0.01 0.35 100 975.6
20260904131743 69 228 3.0 0.0 0.09 0.01 0.34 100 976.0
20260904131616 69 228 3.0 0.0 0.09 0.01 0.34 100 976.0
20260904131059 69 169 2.0 0.0 0.09 0.01 0.33 100 975.6
20260904130937 69 169 2.0 0.0 0.09 0.01 0.33 100 975.6